This demonstration page uses our WeatherBlox Daily Observations layout. Learn more.

41.86663, -103.66717

Hourly Observations for June 7, 2019

Temp ( °F °C ) Dew Point ( °F °C ) Humidity (%) Winds ( mph kmh ) Pressure ( in mb ) Visibility ( mi km ) Precip ( " mm )
12:53 am 00:53 Clear 61 16.1 52 11.1 72 72 E 10 17 29.76 1008 10 16.0934 0 0
1:53 am 01:53 Clear 61 16.1 51 10.6 70 70 ESE 9 15 29.74 1007 10 16.0934 0 0
2:53 am 02:53 Clear 61 16.1 51 10.6 70 70 ESE 12 19 29.73 1007 10 16.0934 0 0
3:53 am 03:53 Clear 59 15 51 10.6 75 75 E 9 15 29.74 1007 10 16.0934 0 0
4:53 am 04:53 Clear 59 15 51 10.6 75 75 ESE 9 15 29.74 1007 10 16.0934 0 0
5:53 am 05:53 Sunny 58 14.4 52 11.1 81 81 N 16 26 29.74 1007 10 16.0934 0 0
6:53 am 06:53 Sunny 63 17.2 53 11.7 70 70 SE 9 15 29.74 1007 10 16.0934 0 0
7:53 am 07:53 Sunny 67 19.4 55 12.8 66 66 ESE 9 15 29.74 1007 10 16.0934 0 0
8:53 am 08:53 Sunny 69 20.6 57 13.9 66 66 SE 8 13 29.75 1007 10 16.0934 0 0
9:53 am 09:53 Sunny 74 23.3 57 13.9 56 56 SSE 6 9 29.74 1007 10 16.0934 0 0
10:53 am 10:53 Sunny 80 26.7 61 16.1 52 52 SE 9 15 29.72 1007 10 16.0934 0 0
11:53 am 11:53 Sunny 85 29.4 63 17.2 48 48 SE 9 15 29.7 1006 10 16.0934 0 0
12:53 pm 12:53 Sunny 87 30.6 65 18.3 48 48 ESE 7 11 29.68 1005 10 16.0934 0 0
1:53 pm 13:53 Mostly Sunny 84 28.9 62 16.7 48 48 ESE 5 7 29.65 1004 10 16.0934 0 0
2:29 pm 14:29 Cloudy with Thunderstorms 75 23.9 55 12.8 50 50 WNW 20 31 29.57 1001 10 16.0934 0 0
2:53 pm 14:53 Partly Cloudy 82 27.8 61 16.1 49 49 NNE 9 15 29.65 1004 10 16.0934 0 0
3:21 pm 15:21 Partly Cloudy with Thunderstorms 81 27.2 60 15.6 49 49 NE 5 7 29.5 999 10 16.0934 0 0
3:36 pm 15:36 Mostly Cloudy with Nearby Thunderstorms 73 23 55 13 53 53 WNW 18 30 29.56 1001 10 16.0934 0 0
3:53 pm 15:53 Mostly Cloudy with Nearby Thunderstorms 73 22.8 54 12.2 51 51 NNW 9 15 29.67 1005 10 16.0934 0 0.0254
4:16 pm 16:16 Cloudy with Light Thunderstorms 69 20.6 55 12.8 61 61 NNE 14 22 29.6 1003 10 16.0934 0 0.0254
4:50 pm 16:50 Partly Cloudy with Nearby Thunderstorms 72 22 57 14 61 61 NNE 20 31 29.56 1001 10 16.0934 0.04 1.016
4:53 pm 16:53 Partly Cloudy with Nearby Thunderstorms 72 22.2 58 14.4 61 61 NNE 17 28 29.65 1004 10 16.0934 0.04 1.016
5:46 pm 17:46 Mostly Cloudy with Light Rain 69 20.6 58 14.4 68 68 NE 14 22 29.57 1002 10 16.0934 0 0.0254
5:53 pm 17:53 Cloudy with Nearby Thunderstorms 69 20.6 55 12.8 61 61 E 7 11 29.68 1005 10 16.0934 0 0.0254
6:11 pm 18:11 Cloudy with Rain 66 19 59 15 78 78 WSW 18 30 29.72 1006 5 8.0467 0 0
6:22 pm 18:22 Cloudy with Nearby Thunderstorms 63 17.2 59 15 87 87 W 13 20 29.73 1007 3 4.82802 0.05 1.27
6:45 pm 18:45 Cloudy with Light Rain 63 17 59 15 88 88 N 13 20 29.7 1006 10 16.0934 0 0
6:53 pm 18:53 Cloudy with Light Rain 62 16.7 59 15 90 90 NNE 15 24 29.73 1007 10 16.0934 0.07 1.778
7:05 pm 19:05 Cloudy with Light Rain 63 17.2 59 15 87 87 NE 24 39 29.62 1003 10 16.0934 0 0.0254
7:53 pm 19:53 Sunny 65 18.3 56 13.3 73 73 ENE 16 26 29.65 1004 10 16.0934 0 0.0254
8:15 pm 20:15 Sunny 66 18.9 55 12.8 68 68 SE 16 26 29.62 1003 10 16.0934 0 0
8:53 pm 20:53 Partly Cloudy 63 17.2 57 13.9 81 81 SE 10 17 29.7 1006 10 16.0934 0 0.0254
9:53 pm 21:53 Clear 65 18.3 56 13.3 73 73 E 16 26 29.69 1005 10 16.0934 0 0
10:53 pm 22:53 Partly Cloudy 63 17.2 58 14.4 84 84 E 15 24 29.68 1005 10 16.0934 0 0
11:53 pm 23:53 Mostly Clear 62 16.7 58 14.4 86 86 E 6 9 29.64 1004 10 16.0934 0 0

Powered by AerisWeather